Location: B�rgermoos
(47.6500°N, 9.0667°E)
Time: 08:27:27
(UTC+00:00)

Vanguard 1 - Pass Details

Date: 08 August 2021
Orbit: 652 x 3831 km, 34.3° (Epoch: 19 September)

Event Time Altitude Azimuth Distance (km) Brightness Sun altitude
Rises 08:39:18 0° 227° (SW) 3,010 12.4 42.9°
Reaches altitude 10° 08:42:31 10° 202° (SSW) 2,045 11.9 43.4°
Maximum altitude 08:45:02 15° 167° (SSE) 1,785 12.1 43.8°
Drops below altitude 10° 08:47:45 10° 132° (SE) 2,219 12.9 44.2°
Sets 08:51:29 0° 109° (ESE) 3,443 13.6 44.7°
